Date String (YYYY-MM-DD hh:mm:ss) UTC,Instrument flags,absolute air pressure of the measurement (hPa),sample flow rate (lpm),inlet stack bypass flow (lpm),air temperature of the measurement (°C),ambient temperature measured by the external sensor (°C),aerosol sample conditioner tube jacket temperature (°C),OPC LED temperature (°C),internal box temperature (°C),relative humidity of the measurement (%),span deviation,mass concentration of particles derived from Lorenz-Mie calculation of OPC scattering (μg/m³),mass concentration of particles derived from Lorenz-Mie calculation of OPC scattering (μg/m³),mass concentration of particles derived from Lorenz-Mie calculation of OPC scattering (μg/m³)
DateTimeUTC,F1_M11,P_M11,Q1_M11,Q2_M11,T1_M11,T2_M11,T3_M11,T4_M11,T5_M11,U1_M11,ZSPAN_M11,X0_M11,X2_M11,X1_M11
2023-08-10 06:00:00,SystemResetWarning,0829.9,5.00,000.00,029.2,026.3,000.0,037.9,030.6,24.8,0000.0,0011.11,0005.76,0004.95
2023-08-10 06:01:00,SystemResetWarning,0829.9,5.00,000.00,029.2,026.6,000.0,037.9,030.7,24.9,0000.0,0011.06,0005.79,0004.95
2023-08-10 06:02:00,SystemResetWarning,0829.9,5.00,000.00,029.2,027.0,000.0,037.9,030.8,24.8,0000.0,0011.01,0005.79,0004.96
2023-08-10 06:03:00,SystemResetWarning,0829.9,5.00,000.00,029.3,027.2,000.0,037.9,030.8,24.7,0000.0,0011.02,0005.82,0004.95
2023-08-10 06:04:00,SystemResetWarning,0829.9,5.01,000.00,029.3,027.4,000.0,037.9,030.9,24.6,0000.0,0011.02,0005.80,0004.94
2023-08-10 06:05:00,SystemResetWarning,0829.9,4.99,000.00,029.3,027.6,000.0,037.9,030.9,24.6,0000.0,0011.01,0005.78,0004.94
2023-08-10 06:06:00,SystemResetWarning,0829.8,5.00,000.00,029.3,027.7,000.0,037.9,031.0,24.5,0000.0,0011.00,0005.75,0004.94
2023-08-10 06:07:00,SystemResetWarning,0829.9,5.00,000.00,029.3,027.8,000.0,037.9,031.0,24.4,0000.0,0011.81,0005.77,0004.95
2023-08-10 06:08:00,SystemResetWarning,0829.8,5.00,000.00,029.4,027.9,000.0,037.9,031.0,24.2,0000.0,0012.17,0005.75,0004.95
2023-08-10 06:09:00,SystemResetWarning,0829.8,5.00,000.00,029.4,028.0,000.0,037.9,031.1,24.1,0000.0,0012.34,0005.74,0004.95
2023-08-10 06:10:00,SystemResetWarning,0829.8,5.00,000.00,029.4,028.1,000.0,038.0,031.1,24.2,0000.0,0012.79,0005.79,0004.95
2023-08-10 06:11:00,SystemResetWarning,0829.8,5.00,000.00,029.4,028.2,000.0,038.0,031.1,24.2,0000.0,0013.05,0005.79,0004.96
2023-08-10 06:12:00,SystemResetWarning,0829.8,5.00,000.00,029.5,028.2,000.0,038.0,031.2,24.2,0000.0,0013.10,0005.76,0004.96
2023-08-10 06:13:00,SystemResetWarning,0829.8,5.00,000.00,029.5,028.3,000.0,038.0,031.2,24.2,0000.0,0013.10,0005.76,0004.96
2023-08-10 06:14:00,SystemResetWarning,0829.8,5.00,000.00,029.5,028.3,000.0,038.0,031.2,23.9,0000.0,0013.03,0005.72,0004.96
2023-08-10 06:15:00,SystemResetWarning,0829.7,5.00,000.00,029.6,028.4,000.0,038.0,031.2,23.9,0000.0,0012.97,0005.68,0004.96
2023-08-10 06:16:00,SystemResetWarning,0829.7,5.01,000.00,029.6,028.4,000.0,038.1,031.3,23.8,0000.0,0013.98,0005.69,0004.96
2023-08-10 06:17:00,SystemResetWarning,0829.7,5.01,000.00,029.6,028.4,000.0,038.1,031.3,23.8,0000.0,0014.17,0005.67,0004.96
2023-08-10 06:18:00,SystemResetWarning,0829.7,4.99,000.00,029.6,028.4,000.0,038.1,031.3,23.7,0000.0,0013.53,0005.64,0004.95
2023-08-10 06:19:00,SystemResetWarning,0829.7,4.99,000.00,029.7,028.5,000.0,038.2,031.3,23.5,0000.0,0013.28,0005.64,0004.96
2023-08-10 06:20:00,SystemResetWarning,0829.7,4.99,000.00,029.7,028.2,000.0,038.1,031.3,23.6,0000.0,0013.11,0005.61,0004.97
2023-08-10 06:21:00,SystemResetWarning,0829.7,5.00,000.00,029.6,026.3,000.0,038.0,031.0,23.8,0000.0,0012.95,0005.56,0004.97
2023-08-10 06:22:00,SystemResetWarning,0829.7,5.01,000.00,029.6,025.2,000.0,037.9,030.8,24.0,0000.0,0012.39,0005.58,0004.97
2023-08-10 06:23:00,SystemResetWarning,0829.7,5.01,000.00,029.4,025.3,000.0,037.9,030.5,24.1,0000.0,0012.08,0005.61,0004.97
2023-08-10 06:24:00,SystemResetWarning,0829.7,5.00,000.00,029.3,025.6,000.0,037.9,030.5,24.3,0000.0,0011.80,0005.61,0004.98
2023-08-10 06:25:00,SystemResetWarning,0829.7,5.00,000.00,029.3,026.0,000.0,037.9,030.6,24.4,0000.0,0012.03,0005.66,0004.99
2023-08-10 06:26:00,SystemResetWarning,0829.7,5.00,000.00,029.3,026.4,000.0,037.9,030.7,24.4,0000.0,0013.03,0005.71,0005.00
2023-08-10 06:27:00,SystemResetWarning,0829.7,4.99,000.00,029.3,026.8,000.0,037.9,030.7,24.3,0000.0,0012.89,0005.72,0005.01
2023-08-10 06:28:00,SystemResetWarning,0829.6,5.00,000.00,029.3,027.0,000.0,037.9,030.8,24.1,0000.0,0012.18,0005.76,0005.02
2023-08-10 06:29:00,SystemResetWarning,0829.6,5.00,000.00,029.3,027.3,000.0,037.9,030.8,24.0,0000.0,0012.09,0005.83,0005.03
2023-08-10 06:30:00,SystemResetWarning,0829.6,4.99,000.00,029.3,027.5,000.0,037.9,030.9,23.9,0000.0,0012.38,0005.86,0005.04
2023-08-10 06:31:00,SystemResetWarning,0829.6,4.99,000.00,029.3,027.6,000.0,038.0,030.9,24.0,0000.0,0012.60,0005.89,0005.04
2023-08-10 06:32:00,SystemResetWarning,0829.6,4.99,000.00,029.3,027.8,000.0,038.0,031.0,24.2,0000.0,0012.37,0005.92,0005.04
2023-08-10 06:33:00,SystemResetWarning,0829.6,5.00,000.00,029.4,027.9,000.0,038.0,031.0,24.1,0000.0,0012.49,0005.91,0005.05
2023-08-10 06:34:00,SystemResetWarning,0829.6,5.00,000.00,029.4,028.0,000.0,038.0,031.0,23.9,0000.0,0012.49,0005.88,0005.06
2023-08-10 06:35:00,SystemResetWarning,0829.6,5.01,000.00,029.4,028.0,000.0,038.0,031.1,24.0,0000.0,0012.67,0005.90,0005.08
2023-08-10 06:36:00,SystemResetWarning,0829.5,5.00,000.00,029.4,028.1,000.0,038.0,031.1,24.1,0000.0,0013.19,0005.86,0005.08
2023-08-10 06:37:00,SystemResetWarning,0829.4,5.00,000.00,029.5,028.2,000.0,038.0,031.1,23.8,0000.0,0012.74,0005.88,0005.09
2023-08-10 06:38:00,SystemResetWarning,0829.4,5.00,000.00,029.5,028.2,000.0,038.0,031.2,23.7,0000.0,0013.07,0005.88,0005.08
2023-08-10 06:39:00,SystemResetWarning,0829.4,5.00,000.00,029.5,028.3,000.0,038.1,031.2,23.5,0000.0,0013.24,0005.88,0005.08
2023-08-10 06:40:00,SystemResetWarning,0829.3,5.00,000.00,029.5,028.3,000.0,038.1,031.2,23.5,-000.0,0013.34,0005.89,0005.10
2023-08-10 06:41:00,SystemResetWarning,0829.3,5.00,000.00,029.6,028.3,000.0,038.1,031.2,23.4,0000.0,0013.33,0005.90,0005.11
2023-08-10 06:42:00,SystemResetWarning,0829.3,5.00,000.00,029.6,028.4,000.0,038.1,031.3,23.5,0000.7,0013.15,0005.87,0005.12
2023-08-10 06:43:00,SystemResetWarning,0829.3,5.00,000.00,029.6,028.4,000.0,038.1,031.3,23.5,0000.2,0013.27,0005.86,0005.11
2023-08-10 06:44:00,SystemResetWarning,0829.3,4.99,000.00,029.6,028.4,000.0,038.2,031.3,23.4,0000.1,0013.16,0005.85,0005.11
2023-08-10 06:45:00,SystemResetWarning,0829.3,5.00,000.00,029.7,028.4,000.0,038.2,031.3,23.4,0000.2,0013.25,0005.86,0005.10
2023-08-10 06:46:00,SystemResetWarning,0829.3,5.00,000.00,029.7,028.5,000.0,038.2,031.3,23.5,0000.0,0013.20,0005.82,0005.10
2023-08-10 06:47:00,SystemResetWarning,0829.4,4.98,000.00,029.7,027.6,000.0,038.1,031.2,23.5,0000.0,0012.51,0005.83,0005.10
2023-08-10 06:48:00,SystemResetWarning,0829.3,5.01,000.00,029.6,025.6,000.0,038.0,031.0,23.5,0000.0,0011.98,0005.80,0005.11
2023-08-10 06:49:00,SystemResetWarning,0829.3,5.01,000.00,029.6,025.1,000.0,037.9,030.8,23.5,0000.0,0011.55,0005.81,0005.11
2023-08-10 06:50:00,SystemResetWarning,0829.2,5.01,000.00,029.4,025.3,000.0,037.9,030.5,23.7,0000.0,0011.50,0005.80,0005.11
2023-08-10 06:51:00,SystemResetWarning,0829.2,4.99,000.00,029.3,025.7,000.0,038.0,030.6,23.8,0000.0,0011.26,0005.71,0005.11
2023-08-10 06:52:00,SystemResetWarning,0829.3,5.00,000.00,029.3,026.1,000.0,038.0,030.7,23.8,0000.0,0011.09,0005.71,0005.11
2023-08-10 06:53:00,SystemResetWarning,0829.2,5.01,000.00,029.3,026.5,000.0,038.0,030.8,23.8,0000.0,0012.57,0005.75,0005.12
2023-08-10 06:54:00,SystemResetWarning,0829.2,5.00,000.00,029.3,026.8,000.0,038.0,030.8,23.7,0000.0,0012.95,0005.78,0005.13
2023-08-10 06:55:00,SystemResetWarning,0829.1,5.00,000.00,029.3,027.1,000.0,038.0,030.8,23.6,0000.0,0013.37,0005.80,0005.14
2023-08-10 06:56:00,SystemResetWarning,0829.1,5.00,000.00,029.3,027.3,000.0,038.0,030.9,23.6,0000.0,0013.07,0005.81,0005.15
2023-08-10 06:57:00,SystemResetWarning,0829.1,4.99,000.00,029.3,027.5,000.0,038.0,030.9,23.6,0000.0,0012.88,0005.82,0005.15
2023-08-10 06:58:00,SystemResetWarning,0829.1,5.00,000.00,029.3,027.7,000.0,038.0,030.9,23.7,0000.0,0012.95,0005.84,0005.15
2023-08-10 06:59:00,SystemResetWarning,0829.1,5.00,000.00,029.4,027.8,000.0,038.0,031.0,23.6,-000.3,0013.05,0005.87,0005.15
